sat.trackr.live / text

‹ back to catalog

STARLINK-37295

NORAD 68552 · 2026-070L

PAYLOAD ACTIVE UNKNOWN

§ Identity

Operator
Country
US
Launch date
2026-04-02
Launch site
AFETR
Launch vehicle
Mass (kg)
RCS (m²)

Purposes: comms

External: N2YO · Heavens-Above · Gunter

§ Orbital elements

Epoch: 2026-05-25T00:00:27.877824Z

Period
93.85 min
Inclination
53.1601°
Eccentricity
0.0001172
Mean motion
15.34397351 rev/d
Perigee alt
461.9 km
Apogee alt
463.5 km
Semi-major
6,840.8 km
B*
2.4888e-4
RAAN
7.7506°
Arg perigee
86.3507°
Mean anomaly
273.7630°
Rev number
824

§ Raw data

STARLINK-372951 68552U 26070L   26145.00032266  .00008041  00000+0  24888-3 0  99932 68552  53.1601   7.7506 0001172  86.3507 273.7630 15.34397351  8242

JSON: /api/v1/satellites/68552 · /tle

For live sub-satellite position, see the globe view (requires WebGL).

§ Visibility from observer

Set your observer location to see the next 7 days of passes ≥ 10°. The values pass through the URL so the page stays shareable.

No JS? Fill the form by hand. The geolocation button needs JavaScript.